When you browse on this site, cookies collect data to enhance your experience and personalize the content and advertising you see.
Visit our Privacy Policy to learn more. By continuing to use the site, you agree to this use of cookies and data.
  • In Portugal
  • List of Countries
  • For 7 days
  • Water Temperature
  • Satellite Maps
  • Weather Map
  • Weather Widgets
  • user-avatar
    Login

    Hourly Weather Urzuty

    Today, 16 January, Wednesday

    Time Temperature Precipitation Wind Pressure Humidity
    00:00 -1°C° 0.5 mm 8 mps 734 mmHg 90%
    01:00 -1°C° 0 mm 6 mps 734 mmHg 93%
    02:00 -1°C° 0.1 mm 7 mps 734 mmHg 92%
    03:00 0°C° 0.1 mm 8 mps 734 mmHg 91%
    04:00 0°C° 0.1 mm 9 mps 735 mmHg 90%
    05:00 0°C° 0.4 mm 8 mps 735 mmHg 92%
    06:00 0°C° 0.4 mm 7 mps 736 mmHg 93%
    07:00 +1°C° 0.4 mm 6 mps 736 mmHg 94%
    08:00 0°C° 0.9 mm 5 mps 737 mmHg 95%
    09:00 0°C° 0.9 mm 5 mps 737 mmHg 96%
    10:00 0°C° 0.9 mm 5 mps 738 mmHg 97%
    11:00 +1°C° 0.4 mm 5 mps 738 mmHg 96%
    12:00 +1°C° 0.4 mm 6 mps 738 mmHg 95%
    13:00 +1°C° 0.4 mm 6 mps 738 mmHg 95%
    14:00 +1°C° 0 mm 6 mps 739 mmHg 94%
    15:00 +1°C° 0 mm 5 mps 739 mmHg 93%
    16:00 +1°C° 0 mm 4 mps 739 mmHg 92%
    17:00 0°C° 0 mm 4 mps 739 mmHg 91%
    18:00 0°C° 0 mm 4 mps 739 mmHg 91%
    19:00 0°C° 0 mm 3 mps 739 mmHg 90%
    20:00 0°C° 0 mm 3 mps 739 mmHg 89%
    21:00 0°C° 0 mm 3 mps 739 mmHg 88%
    22:00 0°C° 0 mm 3 mps 739 mmHg 87%
    23:00 0°C° 0 mm 3 mps 739 mmHg 87%

    Tomorrow, 17 January, Thursday

    Time Temperature Precipitation Wind Pressure Humidity
    00:00 0°C° 0 mm 3 mps 738 mmHg 86%
    01:00 0°C° 0 mm 3 mps 738 mmHg 86%
    02:00 0°C° 0 mm 3 mps 738 mmHg 85%
    03:00 0°C° 0 mm 3 mps 737 mmHg 84%
    04:00 0°C° 0 mm 3 mps 737 mmHg 83%
    05:00 0°C° 0 mm 3 mps 737 mmHg 81%
    06:00 -1°C° 0 mm 4 mps 737 mmHg 78%
    07:00 -1°C° 0 mm 4 mps 736 mmHg 75%
    08:00 0°C° 0 mm 4 mps 736 mmHg 74%
    09:00 0°C° 0 mm 4 mps 736 mmHg 73%
    10:00 +1°C° 0 mm 4 mps 736 mmHg 72%
    11:00 +1°C° 0 mm 4 mps 736 mmHg 74%
    12:00 +3°C° 0 mm 4 mps 736 mmHg 76%
    13:00 +3°C° 0 mm 4 mps 736 mmHg 78%
    14:00 +3°C° 0 mm 4 mps 736 mmHg 80%
    15:00 +1°C° 0 mm 4 mps 736 mmHg 82%
    16:00 +1°C° 0 mm 3 mps 736 mmHg 85%
    17:00 0°C° 0 mm 4 mps 736 mmHg 84%
    18:00 0°C° 0 mm 4 mps 736 mmHg 84%
    19:00 0°C° 0 mm 4 mps 736 mmHg 83%
    20:00 0°C° 0 mm 4 mps 736 mmHg 82%
    21:00 +1°C° 0 mm 5 mps 736 mmHg 81%
    22:00 +1°C° 0 mm 5 mps 736 mmHg 80%
    23:00 +1°C° 0 mm 6 mps 736 mmHg 81%

    Day after tomorrow, 18 January, Friday

    Time Temperature Precipitation Wind Pressure Humidity
    00:00 +1°C° 0 mm 6 mps 737 mmHg 81%
    01:00 +1°C° 0 mm 6 mps 737 mmHg 82%
    02:00 -1°C° 0 mm 6 mps 737 mmHg 82%
    03:00 0°C° 0 mm 5 mps 737 mmHg 83%
    04:00 0°C° 0 mm 5 mps 737 mmHg 84%
    05:00 -2°C° 0 mm 6 mps 738 mmHg 80%
    06:00 -3°C° 0 mm 6 mps 738 mmHg 76%
    07:00 -3°C° 0 mm 7 mps 739 mmHg 72%
    08:00 -3°C° 0 mm 7 mps 739 mmHg 70%
    09:00 -4°C° 0 mm 8 mps 740 mmHg 68%
    10:00 -3°C° 0 mm 9 mps 741 mmHg 66%
    11:00 -2°C° 0 mm 8 mps 741 mmHg 66%
    12:00 -2°C° 0 mm 8 mps 742 mmHg 66%
    13:00 -2°C° 0 mm 8 mps 743 mmHg 66%
    14:00 -2°C° 0 mm 7 mps 743 mmHg 69%
    15:00 -2°C° 0 mm 6 mps 744 mmHg 71%
    16:00 -2°C° 0 mm 5 mps 745 mmHg 74%
    17:00 -2°C° 0 mm 4 mps 745 mmHg 76%
    18:00 -2°C° 0 mm 4 mps 746 mmHg 79%
    19:00 -1°C° 0 mm 3 mps 747 mmHg 81%
    20:00 -2°C° 0 mm 3 mps 747 mmHg 83%
    21:00 -2°C° 0 mm 3 mps 747 mmHg 85%
    22:00 -3°C° 0 mm 2 mps 748 mmHg 87%
    23:00 -3°C° 0 mm 2 mps 748 mmHg 87%

    19 January, Saturday

    Time Temperature Precipitation Wind Pressure Humidity
    00:00 -3°C° 0 mm 2 mps 748 mmHg 87%
    01:00 -3°C° 0 mm 2 mps 748 mmHg 87%
    02:00 -3°C° 0 mm 2 mps 748 mmHg 86%
    03:00 -3°C° 0 mm 2 mps 748 mmHg 86%
    04:00 -1°C° 0 mm 1 mps 748 mmHg 85%
    05:00 -1°C° 0 mm 1 mps 748 mmHg 84%
    06:00 -1°C° 0 mm 1 mps 748 mmHg 82%
    07:00 -1°C° 0 mm 1 mps 748 mmHg 81%
    08:00 -1°C° 0 mm 1 mps 748 mmHg 77%
    09:00 0°C° 0 mm 1 mps 748 mmHg 74%
    10:00 0°C° 0 mm 1 mps 748 mmHg 70%
    11:00 0°C° 0 mm 1 mps 748 mmHg 68%
    12:00 +1°C° 0 mm 1 mps 748 mmHg 65%
    13:00 0°C° 0 mm 0 mps 747 mmHg 63%
    14:00 +1°C° 0 mm 1 mps 747 mmHg 67%
    15:00 0°C° 0 mm 1 mps 747 mmHg 70%
    16:00 0°C° 0 mm 1 mps 746 mmHg 74%
    17:00 0°C° 0 mm 1 mps 746 mmHg 76%
    18:00 -1°C° 0 mm 1 mps 746 mmHg 78%
    19:00 -1°C° 0 mm 1 mps 747 mmHg 80%
    20:00 -1°C° 0 mm 1 mps 746 mmHg 81%
    21:00 -1°C° 0 mm 1 mps 746 mmHg 82%
    22:00 -1°C° 0 mm 1 mps 746 mmHg 82%
    23:00 -1°C° 0 mm 1 mps 746 mmHg 83%

    20 January, Sunday

    Time Temperature Precipitation Wind Pressure Humidity
    00:00 -1°C° 0 mm 1 mps 746 mmHg 84%
    01:00 -1°C° 0 mm 1 mps 746 mmHg 84%
    02:00 -1°C° 0 mm 1 mps 746 mmHg 85%
    03:00 -2°C° 0 mm 1 mps 745 mmHg 85%
    04:00 -2°C° 0 mm 1 mps 745 mmHg 86%
    05:00 -2°C° 0 mm 1 mps 745 mmHg 86%
    06:00 -2°C° 0 mm 1 mps 745 mmHg 86%
    07:00 -2°C° 0 mm 1 mps 746 mmHg 86%
    08:00 -2°C° 0 mm 1 mps 746 mmHg 83%
    09:00 -1°C° 0 mm 1 mps 746 mmHg 79%
    10:00 -1°C° 0 mm 1 mps 746 mmHg 75%
    11:00 0°C° 0 mm 1 mps 746 mmHg 71%
    12:00 0°C° 0 mm 1 mps 746 mmHg 66%
    13:00 +1°C° 0 mm 1 mps 746 mmHg 62%
    14:00 -2°C° 0 mm 2 mps 746 mmHg 64%
    15:00 -2°C° 0 mm 2 mps 746 mmHg 67%
    16:00 -2°C° 0 mm 2 mps 746 mmHg 70%
    17:00 -3°C° 0 mm 2 mps 747 mmHg 72%
    18:00 -3°C° 0 mm 2 mps 747 mmHg 73%
    19:00 -3°C° 0 mm 2 mps 748 mmHg 75%
    20:00 -4°C° 0 mm 3 mps 748 mmHg 76%
    21:00 -4°C° 0 mm 3 mps 748 mmHg 77%
    22:00 -4°C° 0 mm 3 mps 749 mmHg 79%
    23:00 -4°C° 0 mm 3 mps 749 mmHg 81%

    21 January, Monday

    Time Temperature Precipitation Wind Pressure Humidity
    00:00 -4°C° 0 mm 3 mps 749 mmHg 83%
    01:00 -4°C° 0 mm 3 mps 750 mmHg 86%
    02:00 -5°C° 0 mm 3 mps 750 mmHg 87%
    03:00 -5°C° 0 mm 3 mps 750 mmHg 89%
    04:00 -5°C° 0 mm 3 mps 750 mmHg 91%
    05:00 -5°C° 0 mm 2 mps 751 mmHg 91%
    06:00 -5°C° 0 mm 2 mps 751 mmHg 90%
    07:00 -5°C° 0 mm 2 mps 752 mmHg 90%
    08:00 -5°C° 0 mm 2 mps 752 mmHg 86%
    09:00 -4°C° 0 mm 2 mps 753 mmHg 81%
    10:00 -4°C° 0 mm 2 mps 753 mmHg 77%
    11:00 -3°C° 0 mm 2 mps 754 mmHg 73%
    12:00 -3°C° 0 mm 2 mps 754 mmHg 69%
    13:00 -2°C° 0 mm 2 mps 754 mmHg 65%
    14:00 -3°C° 0 mm 2 mps 754 mmHg 67%
    15:00 -3°C° 0 mm 2 mps 754 mmHg 69%
    16:00 -1°C° 0 mm 1 mps 754 mmHg 71%
    17:00 -1°C° 0 mm 1 mps 755 mmHg 72%
    18:00 -2°C° 0 mm 1 mps 755 mmHg 74%
    19:00 -2°C° 0 mm 1 mps 755 mmHg 75%
    20:00 -2°C° 0 mm 1 mps 755 mmHg 77%
    21:00 -2°C° 0 mm 1 mps 755 mmHg 78%
    22:00 -3°C° 0 mm 1 mps 755 mmHg 79%
    23:00 -3°C° 0 mm 1 mps 755 mmHg 79%
    Show more